sat.trackr.live / text

‹ back to catalog

STARLINK-34655

NORAD 65027 · 2025-161N

PAYLOAD ACTIVE UNKNOWN

§ Identity

Operator
Country
US
Launch date
2025-07-30
Launch site
AFWTR
Launch vehicle
Mass (kg)
RCS (m²)

Purposes: comms

External: N2YO · Heavens-Above · Gunter

§ Orbital elements

Epoch: 2026-09-20T20:08:01.303872Z

Period
93.85 min
Inclination
53.1579°
Eccentricity
0.0001578
Mean motion
15.34408436 rev/d
Perigee alt
461.6 km
Apogee alt
463.8 km
Semi-major
6,840.8 km
B*
7.4840e-4
RAAN
105.9376°
Arg perigee
92.2516°
Mean anomaly
267.8667°
Rev number
6,523

§ Raw data

STARLINK-346551 65027U 25161N   26263.83890398  .00025001  00000+0  74840-3 0  99952 65027  53.1579 105.9376 0001578  92.2516 267.8667 15.34408436 65235

JSON: /api/v1/satellites/65027 · /tle

For live sub-satellite position, see the globe view (requires WebGL).

§ Visibility from observer

Set your observer location to see the next 7 days of passes ≥ 10°. The values pass through the URL so the page stays shareable.

No JS? Fill the form by hand. The geolocation button needs JavaScript.